�v������,�v���f�[�^(L),����(MJ),�����t���O
2002/12/1 0:00,0,0,2
2002/12/1 0:15,0,0,2
2002/12/1 0:30,0,0,2
2002/12/1 0:45,0,0,2
2002/12/1 1:00,0,0,2
2002/12/1 1:15,0,0,2
2002/12/1 1:30,0,0,2
2002/12/1 1:45,0,0,2
2002/12/1 2:00,0,0,2
2002/12/1 2:15,0,0,2
2002/12/1 2:30,0,0,2
2002/12/1 2:45,0,0,2
2002/12/1 3:00,0,0,2
2002/12/1 3:15,0,0,2
2002/12/1 3:30,0,0,2
2002/12/1 3:45,0,0,2
2002/12/1 4:00,0,0,2
2002/12/1 4:15,0,0,2
2002/12/1 4:30,0,0,2
2002/12/1 4:45,0,0,2
2002/12/1 5:00,0,0,2
2002/12/1 5:15,0,0,2
2002/12/1 5:30,0,0,2
2002/12/1 5:45,0,0,2
2002/12/1 6:00,0,0,2
2002/12/1 6:15,0,0,2
2002/12/1 6:30,0,0,2
2002/12/1 6:45,0,0,2
2002/12/1 7:00,0,0,2
2002/12/1 7:15,0,0,2
2002/12/1 7:30,0,0,2
2002/12/1 7:45,0,0,2
2002/12/1 8:00,0,0,2
2002/12/1 8:15,0,0,2
2002/12/1 8:30,0,0,2
2002/12/1 8:45,0,0,2
2002/12/1 9:00,0,0,2
2002/12/1 9:15,0,0,2
2002/12/1 9:30,0,0,2
2002/12/1 9:45,0,0,2
2002/12/1 10:00,0,0,2
2002/12/1 10:15,0,0,2
2002/12/1 10:30,0,0,2
2002/12/1 10:45,0,0,2
2002/12/1 11:00,0,0,2
2002/12/1 11:15,0,0,2
2002/12/1 11:30,0,0,2
2002/12/1 11:45,0,0,2
2002/12/1 12:00,0,0,2
2002/12/1 12:15,0,0,2
2002/12/1 12:30,0,0,2
2002/12/1 12:45,0,0,2
2002/12/1 13:00,0,0,2
2002/12/1 13:15,0,0,2
2002/12/1 13:30,0,0,2
2002/12/1 13:45,0,0,2
2002/12/1 14:00,0,0,2
2002/12/1 14:15,0,0,2
2002/12/1 14:30,0,0,2
2002/12/1 14:45,0,0,2
2002/12/1 15:00,0,0,2
2002/12/1 15:15,0,0,2
2002/12/1 15:30,0,0,2
2002/12/1 15:45,0,0,2
2002/12/1 16:00,0,0,2
2002/12/1 16:15,0,0,2
2002/12/1 16:30,0,0,2
2002/12/1 16:45,0,0,2
2002/12/1 17:00,0,0,2
2002/12/1 17:15,0,0,2
2002/12/1 17:30,0,0,2
2002/12/1 17:45,0,0,2
2002/12/1 18:00,0,0,2
2002/12/1 18:15,0,0,2
2002/12/1 18:30,0,0,2
2002/12/1 18:45,0,0,2
2002/12/1 19:00,0,0,2
2002/12/1 19:15,0,0,2
2002/12/1 19:30,0,0,2
2002/12/1 19:45,0,0,2
2002/12/1 20:00,0,0,2
2002/12/1 20:15,0,0,2
2002/12/1 20:30,0,0,2
2002/12/1 20:45,0,0,2
2002/12/1 21:00,0,0,2
2002/12/1 21:15,0,0,2
2002/12/1 21:30,0,0,2
2002/12/1 21:45,0,0,2
2002/12/1 22:00,0,0,2
2002/12/1 22:15,0,0,2
2002/12/1 22:30,0,0,2
2002/12/1 22:45,0,0,2
2002/12/1 23:00,0,0,2
2002/12/1 23:15,0,0,2
2002/12/1 23:30,0,0,2
2002/12/1 23:45,0,0,2
2002/12/2 0:00,0,0,2
2002/12/2 0:15,0,0,2
2002/12/2 0:30,0,0,2
2002/12/2 0:45,0,0,2
2002/12/2 1:00,0,0,2
2002/12/2 1:15,0,0,2
2002/12/2 1:30,0,0,2
2002/12/2 1:45,0,0,2
2002/12/2 2:00,0,0,2
2002/12/2 2:15,0,0,2
2002/12/2 2:30,0,0,2
2002/12/2 2:45,0,0,2
2002/12/2 3:00,0,0,2
2002/12/2 3:15,0,0,2
2002/12/2 3:30,0,0,2
2002/12/2 3:45,0,0,2
2002/12/2 4:00,0,0,2
2002/12/2 4:15,0,0,2
2002/12/2 4:30,0,0,2
2002/12/2 4:45,0,0,2
2002/12/2 5:00,0,0,2
2002/12/2 5:15,0,0,2
2002/12/2 5:30,0,0,2
2002/12/2 5:45,0,0,2
2002/12/2 6:00,0,0,2
2002/12/2 6:15,0,0,2
2002/12/2 6:30,0,0,2
2002/12/2 6:45,0,0,2
2002/12/2 7:00,0,0,2
2002/12/2 7:15,0,0,2
2002/12/2 7:30,0,0,2
2002/12/2 7:45,0,0,2
2002/12/2 8:00,0,0,2
2002/12/2 8:15,0,0,2
2002/12/2 8:30,0,0,2
2002/12/2 8:45,0,0,2
2002/12/2 9:00,0,0,2
2002/12/2 9:15,0,0,2
2002/12/2 9:30,0,0,2
2002/12/2 9:45,0,0,2
2002/12/2 10:00,0,0,2
2002/12/2 10:15,0,0,2
2002/12/2 10:30,0,0,2
2002/12/2 10:45,0,0,2
2002/12/2 11:00,0,0,2
2002/12/2 11:15,0,0,2
2002/12/2 11:30,0,0,2
2002/12/2 11:45,0,0,2
2002/12/2 12:00,0,0,2
2002/12/2 12:15,0,0,2
2002/12/2 12:30,0,0,2
2002/12/2 12:45,0,0,2
2002/12/2 13:00,0,0,2
2002/12/2 13:15,0,0,0
2002/12/2 13:30,0,0,0
2002/12/2 13:45,0,0,0
2002/12/2 14:00,0,0,0
2002/12/2 14:15,0,0,0
2002/12/2 14:30,0,0,0
2002/12/2 14:45,0,0,0
2002/12/2 15:00,0,0,0
2002/12/2 15:15,0,0,0
2002/12/2 15:30,0,0,0
2002/12/2 15:45,0,0,0
2002/12/2 16:00,0,0,0
2002/12/2 16:15,0,0,0
2002/12/2 16:30,0,0,0
2002/12/2 16:45,0,0,0
2002/12/2 17:00,1.3136729,0.048999999,0
2002/12/2 17:15,9.168900967,0.342000008,0
2002/12/2 17:30,6.300268173,0.234999999,0
2002/12/2 17:45,0,0,0
2002/12/2 18:00,0,0,0
2002/12/2 18:15,0,0,0
2002/12/2 18:30,0,0,0
2002/12/2 18:45,0,0,0
2002/12/2 19:00,0.91152817,0.034000002,0
2002/12/2 19:15,12.17158127,0.453999981,0
2002/12/2 19:30,0,0,0
2002/12/2 19:45,0,0,0
2002/12/2 20:00,0,0,0
2002/12/2 20:15,0,0,0
2002/12/2 20:30,0,0,0
2002/12/2 20:45,0,0,0
2002/12/2 21:00,0,0,0
2002/12/2 21:15,0,0,0
2002/12/2 21:30,0,0,0
2002/12/2 21:45,0,0,0
2002/12/2 22:00,0,0,0
2002/12/2 22:15,0,0,0
2002/12/2 22:30,0,0,0
2002/12/2 22:45,0,0,0
2002/12/2 23:00,0,0,0
2002/12/2 23:15,0,0,0
2002/12/2 23:30,0,0,0
2002/12/2 23:45,0,0,0
2002/12/3 0:00,0,0,0
2002/12/3 0:15,0,0,0
2002/12/3 0:30,0,0,0
2002/12/3 0:45,0,0,0
2002/12/3 1:00,0,0,0
2002/12/3 1:15,0,0,0
2002/12/3 1:30,0,0,0
2002/12/3 1:45,0,0,0
2002/12/3 2:00,0,0,0
2002/12/3 2:15,0,0,0
2002/12/3 2:30,0,0,0
2002/12/3 2:45,0,0,0
2002/12/3 3:00,0,0,0
2002/12/3 3:15,0,0,0
2002/12/3 3:30,0,0,0
2002/12/3 3:45,0,0,0
2002/12/3 4:00,0,0,0
2002/12/3 4:15,0,0,0
2002/12/3 4:30,0,0,0
2002/12/3 4:45,0,0,0
2002/12/3 5:00,0,0,0
2002/12/3 5:15,0,0,0
2002/12/3 5:30,0,0,0
2002/12/3 5:45,0,0,0
2002/12/3 6:00,0,0,0
2002/12/3 6:15,11.50134087,0.429000005,0
2002/12/3 6:30,11.76943708,0.439000003,0
2002/12/3 6:45,17.96246648,0.670000001,0
2002/12/3 7:00,12.5469172,0.468000009,0
2002/12/3 7:15,7.560321808,0.282000005,0
2002/12/3 7:30,6.380697251,0.238000006,0
2002/12/3 7:45,6.943700075,0.259000004,0
2002/12/3 8:00,9.705093861,0.362000003,0
2002/12/3 8:15,16.32707763,0.609000005,0
2002/12/3 8:30,6.353887797,0.237000012,0
2002/12/3 8:45,6.353887797,0.237000012,0
2002/12/3 9:00,7.453083277,0.278000005,0
2002/12/3 9:15,0,0,0
2002/12/3 9:30,0,0,0
2002/12/3 9:45,0,0,0
2002/12/3 10:00,0,0,0
2002/12/3 10:15,0,0,0
2002/12/3 10:30,0,0,0
2002/12/3 10:45,0,0,0
2002/12/3 11:00,0,0,0
2002/12/3 11:15,0,0,0
2002/12/3 11:30,0,0,0
2002/12/3 11:45,0,0,0
2002/12/3 12:00,0,0,0
2002/12/3 12:15,0,0,0
2002/12/3 12:30,0,0,0
2002/12/3 12:45,0,0,0
2002/12/3 13:00,0,0,0
2002/12/3 13:15,0,0,0
2002/12/3 13:30,0,0,0
2002/12/3 13:45,0,0,0
2002/12/3 14:00,0,0,0
2002/12/3 14:15,0,0,0
2002/12/3 14:30,0,0,0
2002/12/3 14:45,0,0,0
2002/12/3 15:00,0,0,0
2002/12/3 15:15,0,0,0
2002/12/3 15:30,0,0,0
2002/12/3 15:45,0,0,0
2002/12/3 16:00,0,0,0
2002/12/3 16:15,0,0,0
2002/12/3 16:30,0,0,0
2002/12/3 16:45,0,0,0
2002/12/3 17:00,0,0,0
2002/12/3 17:15,0,0,0
2002/12/3 17:30,0,0,0
2002/12/3 17:45,0,0,0
2002/12/3 18:00,0,0,0
2002/12/3 18:15,0,0,0
2002/12/3 18:30,0,0,0
2002/12/3 18:45,8.873994828,0.331000001,0
2002/12/3 19:00,6.353887797,0.237000012,0
2002/12/3 19:15,6.353887797,0.237000012,0
2002/12/3 19:30,6.353887797,0.237000012,0
2002/12/3 19:45,10.56300306,0.394000009,0
2002/12/3 20:00,0,0,0
2002/12/3 20:15,0,0,0
2002/12/3 20:30,0,0,0
2002/12/3 20:45,0,0,0
2002/12/3 21:00,0,0,0
2002/12/3 21:15,0,0,0
2002/12/3 21:30,0,0,0
2002/12/3 21:45,0,0,0
2002/12/3 22:00,0,0,0
2002/12/3 22:15,0,0,0
2002/12/3 22:30,0,0,0
2002/12/3 22:45,0,0,0
2002/12/3 23:00,0,0,0
2002/12/3 23:15,0,0,0
2002/12/3 23:30,0,0,0
2002/12/3 23:45,0,0,0
2002/12/4 0:00,0,0,0
2002/12/4 0:15,0,0,0
2002/12/4 0:30,0,0,0
2002/12/4 0:45,0,0,0
2002/12/4 1:00,0,0,0
2002/12/4 1:15,0,0,0
2002/12/4 1:30,0,0,0
2002/12/4 1:45,0,0,0
2002/12/4 2:00,0,0,0
2002/12/4 2:15,0,0,0
2002/12/4 2:30,0,0,0
2002/12/4 2:45,0,0,0
2002/12/4 3:00,0,0,0
2002/12/4 3:15,0,0,0
2002/12/4 3:30,0,0,0
2002/12/4 3:45,0,0,0
2002/12/4 4:00,0,0,0
2002/12/4 4:15,0,0,0
2002/12/4 4:30,0,0,0
2002/12/4 4:45,0,0,0
2002/12/4 5:00,0,0,0
2002/12/4 5:15,0,0,0
2002/12/4 5:30,0,0,0
2002/12/4 5:45,0,0,0
2002/12/4 6:00,13.48525453,0.502999992,0
2002/12/4 6:15,8.337801456,0.31099999,0
2002/12/4 6:30,6.353887797,0.237000012,0
2002/12/4 6:45,6.353887797,0.237000012,0
2002/12/4 7:00,6.997319222,0.261000008,0
2002/12/4 7:15,6.353887797,0.237000012,0
2002/12/4 7:30,6.353887797,0.237000012,0
2002/12/4 7:45,6.487935782,0.242000007,0
2002/12/4 8:00,6.353887797,0.237000012,0
2002/12/4 8:15,6.353887797,0.237000012,0
2002/12/4 8:30,6.353887797,0.237000012,0
2002/12/4 8:45,10.37533522,0.38700001,0
2002/12/4 9:00,0,0,0
2002/12/4 9:15,0,0,0
2002/12/4 9:30,0,0,0
2002/12/4 9:45,0,0,0
2002/12/4 10:00,0,0,0
2002/12/4 10:15,0,0,0
2002/12/4 10:30,0,0,0
2002/12/4 10:45,0,0,0
2002/12/4 11:00,0,0,0
2002/12/4 11:15,0,0,0
2002/12/4 11:30,0,0,0
2002/12/4 11:45,0,0,0
2002/12/4 12:00,0,0,0
2002/12/4 12:15,0,0,0
2002/12/4 12:30,0,0,0
2002/12/4 12:45,0,0,0
2002/12/4 13:00,0,0,0
2002/12/4 13:15,0,0,0
2002/12/4 13:30,0,0,0
2002/12/4 13:45,0,0,0
2002/12/4 14:00,0,0,0
2002/12/4 14:15,1.60857904,0.059999999,0
2002/12/4 14:30,9.329758883,0.347999998,0
2002/12/4 14:45,6.380697251,0.238000006,0
2002/12/4 15:00,6.353887797,0.237000012,0
2002/12/4 15:15,6.353887797,0.237000012,0
2002/12/4 15:30,6.353887797,0.237000012,0
2002/12/4 15:45,6.353887797,0.237000012,0
2002/12/4 16:00,6.353887797,0.237000012,0
2002/12/4 16:15,6.353887797,0.237000012,0
2002/12/4 16:30,6.353887797,0.237000012,0
2002/12/4 16:45,6.353887797,0.237000012,0
2002/12/4 17:00,6.353887797,0.237000012,0
2002/12/4 17:15,6.353887797,0.237000012,0
2002/12/4 17:30,6.353887797,0.237000012,0
2002/12/4 17:45,6.353887797,0.237000012,0
2002/12/4 18:00,9.11528182,0.340000011,0
2002/12/4 18:15,0,0,0
2002/12/4 18:30,0,0,0
2002/12/4 18:45,0,0,0
2002/12/4 19:00,0,0,0
2002/12/4 19:15,0,0,0
2002/12/4 19:30,0,0,0
2002/12/4 19:45,0,0,0
2002/12/4 20:00,0,0,0
2002/12/4 20:15,0,0,0
2002/12/4 20:30,0,0,0
2002/12/4 20:45,0,0,0
2002/12/4 21:00,0,0,0
2002/12/4 21:15,0,0,0
2002/12/4 21:30,0,0,0
2002/12/4 21:45,0,0,0
2002/12/4 22:00,0,0,0
2002/12/4 22:15,0,0,0
2002/12/4 22:30,0,0,0
2002/12/4 22:45,0,0,0
2002/12/4 23:00,0,0,0
2002/12/4 23:15,0,0,0
2002/12/4 23:30,0,0,0
2002/12/4 23:45,0,0,0
2002/12/5 0:00,0,0,0
2002/12/5 0:15,0,0,0
2002/12/5 0:30,0,0,0
2002/12/5 0:45,0,0,0
2002/12/5 1:00,0,0,0
2002/12/5 1:15,0,0,0
2002/12/5 1:30,0,0,0
2002/12/5 1:45,0,0,0
2002/12/5 2:00,0,0,0
2002/12/5 2:15,0,0,0
2002/12/5 2:30,0,0,0
2002/12/5 2:45,0,0,0
2002/12/5 3:00,0,0,0
2002/12/5 3:15,0,0,0
2002/12/5 3:30,0,0,0
2002/12/5 3:45,0,0,0
2002/12/5 4:00,0,0,0
2002/12/5 4:15,0,0,0
2002/12/5 4:30,0,0,0
2002/12/5 4:45,0,0,0
2002/12/5 5:00,0,0,0
2002/12/5 5:15,0,0,0
2002/12/5 5:30,0,0,0
2002/12/5 5:45,0,0,0
2002/12/5 6:00,8.498659134,0.316999994,0
2002/12/5 6:15,7.989276171,0.298000001,0
2002/12/5 6:30,6.380697251,0.238000006,0
2002/12/5 6:45,15.33512139,0.57200002,0
2002/12/5 7:00,6.353887797,0.237000012,0
2002/12/5 7:15,6.514745713,0.243000009,0
2002/12/5 7:30,6.353887797,0.237000012,0
2002/12/5 7:45,6.353887797,0.237000012,0
2002/12/5 8:00,6.353887797,0.237000012,0
2002/12/5 8:15,8.364611387,0.311999999,0
2002/12/5 8:30,0,0,0
2002/12/5 8:45,0,0,0
2002/12/5 9:00,0,0,0
2002/12/5 9:15,0,0,0
2002/12/5 9:30,0,0,0
2002/12/5 9:45,0,0,0
2002/12/5 10:00,0,0,0
2002/12/5 10:15,0,0,0
2002/12/5 10:30,0,0,0
2002/12/5 10:45,0,0,0
2002/12/5 11:00,0,0,0
2002/12/5 11:15,0,0,0
2002/12/5 11:30,0,0,0
2002/12/5 11:45,0,0,0
2002/12/5 12:00,0,0,0
2002/12/5 12:15,0,0,0
2002/12/5 12:30,0,0,0
2002/12/5 12:45,0,0,0
2002/12/5 13:00,0,0,0
2002/12/5 13:15,0,0,0
2002/12/5 13:30,0,0,0
2002/12/5 13:45,2.386059046,0.089000002,0
2002/12/5 14:00,8.284182549,0.309000001,0
2002/12/5 14:15,6.353887797,0.237000012,0
2002/12/5 14:30,6.353887797,0.237000012,0
2002/12/5 14:45,6.353887797,0.237000012,0
2002/12/5 15:00,6.353887797,0.237000012,0
2002/12/5 15:15,6.353887797,0.237000012,0
2002/12/5 15:30,6.353887797,0.237000012,0
2002/12/5 15:45,6.353887797,0.237000012,0
2002/12/5 16:00,6.353887797,0.237000012,0
2002/12/5 16:15,6.353887797,0.237000012,0
2002/12/5 16:30,10.05361939,0.375000001,0
2002/12/5 16:45,0,0,0
2002/12/5 17:00,0,0,0
2002/12/5 17:15,0,0,0
2002/12/5 17:30,0,0,0
2002/12/5 17:45,9.946381092,0.371000008,0
2002/12/5 18:00,6.353887797,0.237000012,0
2002/12/5 18:15,6.353887797,0.237000012,0
2002/12/5 18:30,6.353887797,0.237000012,0
2002/12/5 18:45,6.353887797,0.237000012,0
2002/12/5 19:00,6.353887797,0.237000012,0
2002/12/5 19:15,6.327077866,0.236000001,0
2002/12/5 19:30,0,0,0
2002/12/5 19:45,0,0,0
2002/12/5 20:00,0,0,0
2002/12/5 20:15,0,0,0
2002/12/5 20:30,0,0,0
2002/12/5 20:45,0,0,0
2002/12/5 21:00,0,0,0
2002/12/5 21:15,0,0,0
2002/12/5 21:30,0,0,0
2002/12/5 21:45,0,0,0
2002/12/5 22:00,0,0,0
2002/12/5 22:15,0,0,0
2002/12/5 22:30,0,0,0
2002/12/5 22:45,0,0,0
2002/12/5 23:00,0,0,0
2002/12/5 23:15,0,0,0
2002/12/5 23:30,0,0,0
2002/12/5 23:45,0,0,0
2002/12/6 0:00,0,0,0
2002/12/6 0:15,0,0,0
2002/12/6 0:30,0,0,0
2002/12/6 0:45,0,0,0
2002/12/6 1:00,0,0,0
2002/12/6 1:15,0,0,0
2002/12/6 1:30,0,0,0
2002/12/6 1:45,0,0,0
2002/12/6 2:00,0,0,0
2002/12/6 2:15,0,0,0
2002/12/6 2:30,0,0,0
2002/12/6 2:45,0,0,0
2002/12/6 3:00,0,0,0
2002/12/6 3:15,0,0,0
2002/12/6 3:30,0,0,0
2002/12/6 3:45,0,0,0
2002/12/6 4:00,0,0,0
2002/12/6 4:15,0,0,0
2002/12/6 4:30,0,0,0
2002/12/6 4:45,0,0,0
2002/12/6 5:00,0,0,0
2002/12/6 5:15,0,0,0
2002/12/6 5:30,0,0,0
2002/12/6 5:45,0,0,0
2002/12/6 6:00,0,0,0
2002/12/6 6:15,8.230562985,0.307000004,0
2002/12/6 6:30,6.353887797,0.237000012,0
2002/12/6 6:45,6.353887797,0.237000012,0
2002/12/6 7:00,6.353887797,0.237000012,0
2002/12/6 7:15,6.353887797,0.237000012,0
2002/12/6 7:30,6.353887797,0.237000012,0
2002/12/6 7:45,6.353887797,0.237000012,0
2002/12/6 8:00,6.353887797,0.237000012,0
2002/12/6 8:15,6.407506466,0.238999993,0
2002/12/6 8:30,0,0,0
2002/12/6 8:45,0,0,0
2002/12/6 9:00,0,0,0
2002/12/6 9:15,0,0,0
2002/12/6 9:30,0,0,0
2002/12/6 9:45,0,0,0
2002/12/6 10:00,0,0,0
2002/12/6 10:15,0,0,0
2002/12/6 10:30,0,0,0
2002/12/6 10:45,0,0,0
2002/12/6 11:00,0,0,0
2002/12/6 11:15,0,0,0
2002/12/6 11:30,0,0,0
2002/12/6 11:45,0,0,0
2002/12/6 12:00,0,0,0
2002/12/6 12:15,0,0,0
2002/12/6 12:30,0,0,0
2002/12/6 12:45,0,0,0
2002/12/6 13:00,0,0,0
2002/12/6 13:15,0,0,0
2002/12/6 13:30,0,0,0
2002/12/6 13:45,0,0,0
2002/12/6 14:00,0,0,0
2002/12/6 14:15,0,0,0
2002/12/6 14:30,0,0,0
2002/12/6 14:45,0,0,0
2002/12/6 15:00,0,0,0
2002/12/6 15:15,0,0,0
2002/12/6 15:30,0,0,0
2002/12/6 15:45,0,0,0
2002/12/6 16:00,0,0,0
2002/12/6 16:15,0,0,0
2002/12/6 16:30,0,0,0
2002/12/6 16:45,0,0,0
2002/12/6 17:00,0,0,0
2002/12/6 17:15,0,0,0
2002/12/6 17:30,0,0,0
2002/12/6 17:45,2.788203716,0.104000002,0
2002/12/6 18:00,7.962466717,0.297000007,0
2002/12/6 18:15,6.353887797,0.237000012,0
2002/12/6 18:30,6.353887797,0.237000012,0
2002/12/6 18:45,6.353887797,0.237000012,0
2002/12/6 19:00,6.353887797,0.237000012,0
2002/12/6 19:15,6.353887797,0.237000012,0
2002/12/6 19:30,6.353887797,0.237000012,0
2002/12/6 19:45,6.353887797,0.237000012,0
2002/12/6 20:00,6.353887797,0.237000012,0
2002/12/6 20:15,6.353887797,0.237000012,0
2002/12/6 20:30,6.353887797,0.237000012,0
2002/12/6 20:45,9.839142323,0.367000014,0
2002/12/6 21:00,8.71313715,0.325000011,0
2002/12/6 21:15,6.353887797,0.237000012,0
2002/12/6 21:30,6.353887797,0.237000012,0
2002/12/6 21:45,6.353887797,0.237000012,0
2002/12/6 22:00,6.353887797,0.237000012,0
2002/12/6 22:15,6.353887797,0.237000012,0
2002/12/6 22:30,7.506702662,0.280000009,0
2002/12/6 22:45,0,0,0
2002/12/6 23:00,0,0,0
2002/12/6 23:15,0,0,0
2002/12/6 23:30,0,0,0
2002/12/6 23:45,0,0,0
2002/12/7 0:00,0,0,0
2002/12/7 0:15,0,0,0
2002/12/7 0:30,0,0,0
2002/12/7 0:45,0,0,0
2002/12/7 1:00,0,0,0
2002/12/7 1:15,0,0,0
2002/12/7 1:30,0,0,0
2002/12/7 1:45,0,0,0
2002/12/7 2:00,0,0,0
2002/12/7 2:15,0,0,0
2002/12/7 2:30,0,0,0
2002/12/7 2:45,0,0,0
2002/12/7 3:00,0,0,0
2002/12/7 3:15,0,0,0
2002/12/7 3:30,0,0,0
2002/12/7 3:45,0,0,0
2002/12/7 4:00,0,0,0
2002/12/7 4:15,0,0,0
2002/12/7 4:30,0,0,0
2002/12/7 4:45,0,0,0
2002/12/7 5:00,0,0,0
2002/12/7 5:15,0,0,0
2002/12/7 5:30,0,0,0
2002/12/7 5:45,0,0,0
2002/12/7 6:00,0,0,0
2002/12/7 6:15,0,0,0
2002/12/7 6:30,0,0,0
2002/12/7 6:45,0,0,0
2002/12/7 7:00,0,0,0
2002/12/7 7:15,5.683646202,0.211999997,0
2002/12/7 7:30,6.729222775,0.25100001,0
2002/12/7 7:45,6.353887797,0.237000012,0
2002/12/7 8:00,6.407506943,0.239000008,0
2002/12/7 8:15,6.353887797,0.237000012,0
2002/12/7 8:30,6.353887797,0.237000012,0
2002/12/7 8:45,6.353887797,0.237000012,0
2002/12/7 9:00,6.353887797,0.237000012,0
2002/12/7 9:15,6.353887797,0.237000012,0
2002/12/7 9:30,6.353887797,0.237000012,0
2002/12/7 9:45,6.353887797,0.237000012,0
2002/12/7 10:00,6.353887797,0.237000012,0
2002/12/7 10:15,6.353887797,0.237000012,0
2002/12/7 10:30,6.380697251,0.238000006,0
2002/12/7 10:45,6.380697251,0.238000006,0
2002/12/7 11:00,6.380697251,0.238000006,0
2002/12/7 11:15,6.353887797,0.237000012,0
2002/12/7 11:30,6.353887797,0.237000012,0
2002/12/7 11:45,7.238605976,0.270000011,0
2002/12/7 12:00,0,0,0
2002/12/7 12:15,0,0,0
2002/12/7 12:30,0,0,0
2002/12/7 12:45,0,0,0
2002/12/7 13:00,0,0,0
2002/12/7 13:15,0,0,0
2002/12/7 13:30,0,0,0
2002/12/7 13:45,0,0,0
2002/12/7 14:00,10.91152787,0.406999997,0
2002/12/7 14:15,6.353887797,0.237000012,0
2002/12/7 14:30,6.353887797,0.237000012,0
2002/12/7 14:45,6.353887797,0.237000012,0
2002/12/7 15:00,6.353887797,0.237000012,0
2002/12/7 15:15,6.353887797,0.237000012,0
2002/12/7 15:30,6.353887797,0.237000012,0
2002/12/7 15:45,6.353887797,0.237000012,0
2002/12/7 16:00,6.353887797,0.237000012,0
2002/12/7 16:15,6.353887797,0.237000012,0
2002/12/7 16:30,6.353887797,0.237000012,0
2002/12/7 16:45,6.353887797,0.237000012,0
2002/12/7 17:00,6.353887797,0.237000012,0
2002/12/7 17:15,6.353887797,0.237000012,0
2002/12/7 17:30,6.353887797,0.237000012,0
2002/12/7 17:45,6.353887797,0.237000012,0
2002/12/7 18:00,6.353887797,0.237000012,0
2002/12/7 18:15,6.353887797,0.237000012,0
2002/12/7 18:30,6.353887797,0.237000012,0
2002/12/7 18:45,6.353887797,0.237000012,0
2002/12/7 19:00,6.353887797,0.237000012,0
2002/12/7 19:15,6.353887797,0.237000012,0
2002/12/7 19:30,6.353887797,0.237000012,0
2002/12/7 19:45,6.353887797,0.237000012,0
2002/12/7 20:00,6.353887797,0.237000012,0
2002/12/7 20:15,6.353887797,0.237000012,0
2002/12/7 20:30,6.353887797,0.237000012,0
2002/12/7 20:45,6.353887797,0.237000012,0
2002/12/7 21:00,6.353887797,0.237000012,0
2002/12/7 21:15,6.353887797,0.237000012,0
2002/12/7 21:30,6.353887797,0.237000012,0
2002/12/7 21:45,6.353887797,0.237000012,0
2002/12/7 22:00,6.353887797,0.237000012,0
2002/12/7 22:15,6.353887797,0.237000012,0
2002/12/7 22:30,6.353887797,0.237000012,0
2002/12/7 22:45,6.353887797,0.237000012,0
2002/12/7 23:00,6.353887797,0.237000012,0
2002/12/7 23:15,6.353887797,0.237000012,0
2002/12/7 23:30,6.56836462,0.245000005,0
2002/12/7 23:45,0,0,0
2002/12/8 0:00,0,0,0
2002/12/8 0:15,0,0,0
2002/12/8 0:30,0,0,0
2002/12/8 0:45,0,0,0
2002/12/8 1:00,0,0,0
2002/12/8 1:15,0,0,0
2002/12/8 1:30,0,0,0
2002/12/8 1:45,0,0,0
2002/12/8 2:00,0,0,0
2002/12/8 2:15,0,0,0
2002/12/8 2:30,0,0,0
2002/12/8 2:45,0,0,0
2002/12/8 3:00,0,0,0
2002/12/8 3:15,0,0,0
2002/12/8 3:30,0,0,0
2002/12/8 3:45,0,0,0
2002/12/8 4:00,0,0,0
2002/12/8 4:15,0,0,0
2002/12/8 4:30,0,0,0
2002/12/8 4:45,0,0,0
2002/12/8 5:00,0,0,0
2002/12/8 5:15,0,0,0
2002/12/8 5:30,0,0,0
2002/12/8 5:45,0,0,0
2002/12/8 6:00,0,0,0
2002/12/8 6:15,0,0,0
2002/12/8 6:30,0,0,0
2002/12/8 6:45,4.906166077,0.182999998,0
2002/12/8 7:00,18.90080404,0.704999998,0
2002/12/8 7:15,11.68900824,0.436000004,0
2002/12/8 7:30,8.766756296,0.327,0
2002/12/8 7:45,8.418230534,0.313999996,0
2002/12/8 8:00,8.016085625,0.298999995,0
2002/12/8 8:15,6.407506705,0.239,0
2002/12/8 8:30,6.353887797,0.237000012,0
2002/12/8 8:45,6.997319222,0.261000008,0
2002/12/8 9:00,6.353887797,0.237000012,0
2002/12/8 9:15,6.353887797,0.237000012,0
2002/12/8 9:30,6.353887797,0.237000012,0
2002/12/8 9:45,6.353887797,0.237000012,0
2002/12/8 10:00,6.353887797,0.237000012,0
2002/12/8 10:15,6.353887797,0.237000012,0
2002/12/8 10:30,6.353887797,0.237000012,0
2002/12/8 10:45,6.353887797,0.237000012,0
2002/12/8 11:00,6.353887797,0.237000012,0
2002/12/8 11:15,6.353887797,0.237000012,0
2002/12/8 11:30,6.353887797,0.237000012,0
2002/12/8 11:45,15.0402143,0.560999997,0
2002/12/8 12:00,6.353887797,0.237000012,0
2002/12/8 12:15,6.353887797,0.237000012,0
2002/12/8 12:30,6.353887797,0.237000012,0
2002/12/8 12:45,6.353887797,0.237000012,0
2002/12/8 13:00,6.353887797,0.237000012,0
2002/12/8 13:15,6.353887797,0.237000012,0
2002/12/8 13:30,6.353887797,0.237000012,0
2002/12/8 13:45,6.353887797,0.237000012,0
2002/12/8 14:00,8.257372618,0.307999999,0
2002/12/8 14:15,7.479892969,0.279,0
2002/12/8 14:30,6.353887797,0.237000012,0
2002/12/8 14:45,6.353887797,0.237000012,0
2002/12/8 15:00,10.48257375,0.39100001,0
2002/12/8 15:15,11.60857868,0.432999984,0
2002/12/8 15:30,6.1394099,0.228999995,0
2002/12/8 15:45,6.353887797,0.237000012,0
2002/12/8 16:00,6.353887797,0.237000012,0
2002/12/8 16:15,6.353887797,0.237000012,0
2002/12/8 16:30,6.353887797,0.237000012,0
2002/12/8 16:45,6.353887797,0.237000012,0
2002/12/8 17:00,6.353887797,0.237000012,0
2002/12/8 17:15,7.158177138,0.267000005,0
2002/12/8 17:30,6.380697251,0.238000006,0
2002/12/8 17:45,6.353887797,0.237000012,0
2002/12/8 18:00,6.997318984,0.261,0
2002/12/8 18:15,6.353887797,0.237000012,0
2002/12/8 18:30,6.353887797,0.237000012,0
2002/12/8 18:45,6.353887797,0.237000012,0
2002/12/8 19:00,6.353887797,0.237000012,0
2002/12/8 19:15,6.353887797,0.237000012,0
2002/12/8 19:30,6.353887797,0.237000012,0
2002/12/8 19:45,6.353887797,0.237000012,0
2002/12/8 20:00,6.353887797,0.237000012,0
2002/12/8 20:15,6.353887797,0.237000012,0
2002/12/8 20:30,6.353887797,0.237000012,0
2002/12/8 20:45,6.353887797,0.237000012,0
2002/12/8 21:00,10.53619337,0.393000007,0
2002/12/8 21:15,0,0,0
2002/12/8 21:30,8.391421318,0.313000012,0
2002/12/8 21:45,6.353887797,0.237000012,0
2002/12/8 22:00,6.353887797,0.237000012,0
2002/12/8 22:15,6.353887797,0.237000012,0
2002/12/8 22:30,6.353887797,0.237000012,0
2002/12/8 22:45,6.353887797,0.237000012,0
2002/12/8 23:00,6.353887797,0.237000012,0
2002/12/8 23:15,6.353887797,0.237000012,0
2002/12/8 23:30,6.353887797,0.237000012,0
2002/12/8 23:45,6.353887797,0.237000012,0
2002/12/9 0:00,4.906166077,0.182999998,0
2002/12/9 0:15,0,0,0
2002/12/9 0:30,0,0,0
2002/12/9 0:45,0,0,0
2002/12/9 1:00,0,0,0
2002/12/9 1:15,0,0,0
2002/12/9 1:30,0,0,0
2002/12/9 1:45,0,0,0
2002/12/9 2:00,0,0,0
2002/12/9 2:15,0,0,0
2002/12/9 2:30,0,0,0
2002/12/9 2:45,0,0,0
2002/12/9 3:00,0,0,0
2002/12/9 3:15,0,0,0
2002/12/9 3:30,0,0,0
2002/12/9 3:45,0,0,0
2002/12/9 4:00,0,0,0
2002/12/9 4:15,0,0,0
2002/12/9 4:30,0,0,0
2002/12/9 4:45,0,0,0
2002/12/9 5:00,0,0,0
2002/12/9 5:15,0,0,0
2002/12/9 5:30,0,0,0
2002/12/9 5:45,0,0,0
2002/12/9 6:00,16.67560291,0.622000009,0
2002/12/9 6:15,20.13404822,0.751000002,0
2002/12/9 6:30,9.008042812,0.336000003,0
2002/12/9 6:45,7.694369793,0.287,0
2002/12/9 7:00,9.839142561,0.367000006,0
2002/12/9 7:15,9.973190308,0.371999994,0
2002/12/9 7:30,6.380697251,0.238000006,0
2002/12/9 7:45,7.533512354,0.281000011,0
2002/12/9 8:00,6.890080691,0.257000007,0
2002/12/9 8:15,20.88471842,0.779000006,0
2002/12/9 8:30,6.434316636,0.24000001,0
2002/12/9 8:45,6.353887797,0.237000012,0
2002/12/9 9:00,6.353887797,0.237000012,0
2002/12/9 9:15,6.353887797,0.237000012,0
2002/12/9 9:30,6.380697251,0.238000006,0
2002/12/9 9:45,12.89544225,0.480999999,0
2002/12/9 10:00,17.18498636,0.64100001,0
2002/12/9 10:15,6.353887797,0.237000012,0
2002/12/9 10:30,6.353887797,0.237000012,0
2002/12/9 10:45,6.353887797,0.237000012,0
2002/12/9 11:00,6.353887797,0.237000012,0
2002/12/9 11:15,6.353887797,0.237000012,0
2002/12/9 11:30,6.353887797,0.237000012,0
2002/12/9 11:45,6.353887797,0.237000012,0
2002/12/9 12:00,8.042895318,0.299999997,0
2002/12/9 12:15,7.345844269,0.273999989,0
2002/12/9 12:30,0,0,0
2002/12/9 12:45,10.53619337,0.393000007,0
2002/12/9 13:00,6.46112609,0.241000004,0
2002/12/9 13:15,7.801608801,0.291000002,0
2002/12/9 13:30,11.95710468,0.44600001,0
2002/12/9 13:45,7.908847332,0.295000003,0
2002/12/9 14:00,6.407506943,0.239000008,0
2002/12/9 14:15,6.353887797,0.237000012,0